Hot Springs, VA

1:13 PM EDT on July 27, 2017 (GMT -0400)
Ingalls

Weather History for KHSP - July, 2014

Change the Weather History Date:

Friday, July 4, 2014

  Actual Average Record
Temperature  
Mean Temperature 58 °F -  
Max Temperature 65 °F 73 °F 87 °F (1999)
Min Temperature 52 °F 58 °F 46 °F (1996)
Degree Days  
Heating Degree Days 7    
Growing Degree Days 8 (Base 50)    
Moisture  
Dew Point 46 °F    
Average Humidity 67    
Maximum Humidity 91    
Minimum Humidity 42    
Precipitation  
Precipitation 0.00 in - - ()
Sea Level Pressure  
Sea Level Pressure 30.23 in    
Wind  
Wind Speed 12 mph (NW)    
Max Wind Speed 17 mph    
Max Gust Speed 25 mph    
Visibility 10 miles    
Events      
Averages and records for this station are not official NWS values.
T = Trace of Precipitation, MM = Missing Value Source: NWS Daily Summary

Daily Weather History Graph

Daily Weather History Graph

Search for Another Location

Airport or City:

Trip Planner

Search our weather history database for the weather conditions in past years. The results will help you decide how hot, cold, wet, or windy it might be!

Date:

Astronomy

Jul. 04, 2014 Rise Set
Actual Time 6:02 AM EDT 8:45 PM EDT
Civil Twilight 5:30 AM EDT 9:16 PM EDT
Nautical Twilight 4:51 AM EDT 9:55 PM EDT
Astronomical Twilight 4:07 AM EDT 10:39 PM EDT
Moon 12:49 PM EDT (7/4) 12:13 AM EDT (7/4)
Length of Visible Light 15h 45m
Length of Day
14h 43m
Waxing Crescent, 42% of the Moon is Illuminated
Jul 4
Waxing Crescent
Jul 5
First Quarter
Jul 12
Full
Jul 18
Last Quarter
Jul 26
New

Hourly Weather History & Observations

Time (EDT) Temp. Dew Point Humidity Pressure Visibility Wind Dir Wind Speed Gust Speed Precip Events Conditions
12:15 AM 59.2 °F 52.5 °F 79% 30.16 in 10.0 mi NW 12.7 mph 19.6 mph N/A   Overcast
12:35 AM 58.8 °F 50.9 °F 75% 30.16 in 10.0 mi WNW 15.0 mph 20.7 mph N/A   Overcast
12:55 AM 58.1 °F 50.4 °F 75% 30.16 in 10.0 mi NW 11.5 mph - N/A   Overcast
1:15 AM 57.6 °F 49.8 °F 75% 30.16 in 10.0 mi NW 13.8 mph 23.0 mph N/A   Overcast
1:35 AM 56.8 °F 49.5 °F 76% 30.16 in 10.0 mi NW 15.0 mph 20.7 mph N/A   Overcast
1:55 AM 56.5 °F 49.5 °F 77% 30.16 in 10.0 mi NW 12.7 mph 20.7 mph N/A   Overcast
2:15 AM 55.8 °F 49.6 °F 80% 30.16 in 10.0 mi NW 11.5 mph 18.4 mph N/A   Overcast
2:35 AM 55.0 °F 49.6 °F 82% 30.16 in 10.0 mi WNW 10.4 mph - N/A   Scattered Clouds
2:55 AM 54.5 °F 49.6 °F 84% 30.15 in 10.0 mi NW 12.7 mph - N/A   Scattered Clouds
3:15 AM 54.0 °F 49.8 °F 86% 30.15 in 10.0 mi WNW 12.7 mph - N/A   Scattered Clouds
3:35 AM 53.8 °F 50.0 °F 87% 30.15 in 10.0 mi WNW 12.7 mph - N/A   Clear
3:55 AM 53.6 °F 50.4 °F 89% 30.15 in 10.0 mi NW 11.5 mph - N/A   Scattered Clouds
4:15 AM 53.6 °F 50.9 °F 91% 30.16 in 10.0 mi NW 13.8 mph - N/A   Scattered Clouds
4:35 AM 53.4 °F 50.9 °F 91% 30.16 in 10.0 mi NW 13.8 mph - N/A   Scattered Clouds
4:55 AM 53.2 °F 50.5 °F 91% 30.16 in 10.0 mi NW 11.5 mph - N/A   Scattered Clouds
5:20 AM 52.9 °F 50.4 °F 91% 30.17 in 10.0 mi NW 12.7 mph - N/A   Scattered Clouds
5:35 AM 52.9 °F 50.4 °F 91% 30.17 in 10.0 mi NW 11.5 mph - N/A   Scattered Clouds
5:55 AM 52.7 °F 50.0 °F 91% 30.18 in 10.0 mi NW 12.7 mph - N/A   Clear
6:15 AM 52.7 °F 50.0 °F 91% 30.18 in 10.0 mi NW 9.2 mph 17.3 mph N/A   Scattered Clouds
6:40 AM 52.7 °F 50.2 °F 91% 30.18 in 10.0 mi NW 10.4 mph - N/A   Scattered Clouds
6:55 AM 52.7 °F 50.2 °F 91% 30.18 in 10.0 mi NW 13.8 mph 18.4 mph N/A   Clear
7:15 AM 53.2 °F 50.5 °F 91% 30.18 in 10.0 mi NW 12.7 mph 20.7 mph N/A   Scattered Clouds
7:35 AM 53.8 °F 50.4 °F 88% 30.18 in 10.0 mi NW 11.5 mph - N/A   Scattered Clouds
7:55 AM 54.1 °F 50.7 °F 88% 30.18 in 10.0 mi WNW 15.0 mph 20.7 mph N/A   Scattered Clouds
8:15 AM 55.8 °F 50.4 °F 82% 30.19 in 10.0 mi WNW 12.7 mph 24.2 mph N/A   Mostly Cloudy
8:35 AM 56.7 °F 50.4 °F 79% 30.19 in 10.0 mi NW 17.3 mph 21.9 mph N/A   Mostly Cloudy
8:55 AM 56.8 °F 49.5 °F 76% 30.20 in 10.0 mi NW 11.5 mph 21.9 mph N/A   Mostly Cloudy
9:15 AM 57.4 °F 49.3 °F 74% 30.20 in 10.0 mi NW 17.3 mph 25.3 mph N/A   Overcast
9:35 AM 58.3 °F 50.0 °F 74% 30.20 in 10.0 mi WNW 15.0 mph 21.9 mph N/A   Overcast
9:55 AM 57.9 °F 49.5 °F 73% 30.20 in 10.0 mi NW 15.0 mph 25.3 mph N/A   Overcast
10:15 AM 58.3 °F 48.6 °F 70% 30.21 in 10.0 mi NW 17.3 mph 25.3 mph N/A   Scattered Clouds
10:40 AM 60.1 °F 48.9 °F 67% 30.21 in 10.0 mi NW 12.7 mph 24.2 mph N/A   Mostly Cloudy
10:55 AM 59.7 °F 48.6 °F 67% 30.22 in 10.0 mi WNW 16.1 mph 23.0 mph N/A   Mostly Cloudy
11:15 AM 60.8 °F 47.8 °F 62% 30.23 in 10.0 mi NW 13.8 mph 20.7 mph N/A   Scattered Clouds
11:35 AM 61.0 °F 47.1 °F 60% 30.23 in 10.0 mi NW 9.2 mph 20.7 mph N/A   Mostly Cloudy
11:55 AM 61.3 °F 47.7 °F 61% 30.23 in 10.0 mi NNW 12.7 mph 23.0 mph N/A   Mostly Cloudy
12:15 PM 62.6 °F 48.0 °F 59% 30.23 in 10.0 mi NNW 11.5 mph 19.6 mph N/A   Scattered Clouds
12:35 PM 61.5 °F 47.7 °F 60% 30.23 in 10.0 mi NW 8.1 mph 19.6 mph N/A   Mostly Cloudy
12:55 PM 63.0 °F 47.7 °F 57% 30.23 in 10.0 mi NW 8.1 mph 17.3 mph N/A   Mostly Cloudy
1:15 PM 64.4 °F 45.9 °F 51% 30.23 in 10.0 mi NNW 13.8 mph 17.3 mph N/A   Scattered Clouds
1:35 PM 64.2 °F 43.7 °F 47% 30.23 in 10.0 mi NNW 10.4 mph 19.6 mph N/A   Scattered Clouds
1:55 PM 64.6 °F 41.9 °F 44% 30.23 in 10.0 mi NNW 12.7 mph 23.0 mph N/A   Clear
2:15 PM 64.8 °F 42.4 °F 44% 30.23 in 10.0 mi NW 12.7 mph 19.6 mph N/A   Clear
2:35 PM 64.9 °F 41.4 °F 42% 30.24 in 10.0 mi WNW 12.7 mph 23.0 mph N/A   Clear
3:00 PM 64.8 °F 41.7 °F 43% 30.24 in 10.0 mi NNW 17.3 mph 24.2 mph N/A   Clear
3:15 PM 64.8 °F 42.3 °F 44% 30.25 in 10.0 mi NNW 15.0 mph 23.0 mph N/A   Clear
3:35 PM 64.6 °F 42.8 °F 45% 30.25 in 10.0 mi NNW 13.8 mph 25.3 mph N/A   Clear
3:55 PM 64.4 °F 42.4 °F 45% 30.25 in 10.0 mi NW 15.0 mph 21.9 mph N/A   Clear
4:15 PM 64.8 °F 43.2 °F 45% 30.25 in 10.0 mi NNW 16.1 mph 23.0 mph N/A   Clear
4:35 PM 64.8 °F 43.7 °F 46% 30.25 in 10.0 mi NW 11.5 mph 20.7 mph N/A   Scattered Clouds
4:55 PM 64.2 °F 42.3 °F 45% 30.26 in 10.0 mi NW 10.4 mph 21.9 mph N/A   Clear
5:15 PM 63.0 °F 42.1 °F 46% 30.27 in 10.0 mi NNW 15.0 mph 20.7 mph N/A   Scattered Clouds
5:35 PM 63.1 °F 42.4 °F 47% 30.27 in 10.0 mi NNW 13.8 mph 21.9 mph N/A   Scattered Clouds
5:55 PM 62.4 °F 43.0 °F 49% 30.27 in 10.0 mi NW 12.7 mph 19.6 mph N/A   Scattered Clouds
6:15 PM 61.9 °F 42.3 °F 49% 30.28 in 10.0 mi NNW 10.4 mph 21.9 mph N/A   Clear
6:35 PM 62.8 °F 42.8 °F 48% 30.27 in 10.0 mi NW 13.8 mph 18.4 mph N/A   Scattered Clouds
6:55 PM 61.9 °F 41.7 °F 48% 30.28 in 10.0 mi NNW 11.5 mph 23.0 mph N/A   Scattered Clouds
7:15 PM 61.0 °F 42.4 °F 51% 30.29 in 10.0 mi NNW 9.2 mph 16.1 mph N/A   Scattered Clouds
7:35 PM 59.9 °F 43.2 °F 54% 30.29 in 10.0 mi NW 9.2 mph - N/A   Scattered Clouds
7:55 PM 59.4 °F 42.3 °F 53% 30.30 in 10.0 mi NNW 9.2 mph - N/A   Clear
8:15 PM 58.1 °F 41.7 °F 54% 30.30 in 10.0 mi NNW 8.1 mph - N/A   Scattered Clouds
8:40 PM 57.2 °F 41.4 °F 55% 30.31 in 10.0 mi NW 6.9 mph - N/A   Clear
8:55 PM 56.5 °F 41.5 °F 57% 30.31 in 10.0 mi NW 10.4 mph - N/A   Clear
9:20 PM 55.8 °F 41.9 °F 60% 30.31 in 10.0 mi NW 8.1 mph - N/A   Scattered Clouds
9:35 PM 55.6 °F 41.9 °F 60% 30.32 in 10.0 mi NW 9.2 mph - N/A   Mostly Cloudy
9:55 PM 55.6 °F 42.1 °F 60% 30.32 in 10.0 mi NW 5.8 mph - N/A   Scattered Clouds
10:15 PM 55.0 °F 42.1 °F 62% 30.33 in 10.0 mi NW 5.8 mph - N/A   Clear
10:35 PM 54.7 °F 42.3 °F 63% 30.34 in 10.0 mi NNW 6.9 mph - N/A   Clear
11:15 PM 54.3 °F 42.8 °F 65% 30.34 in 10.0 mi NW 8.1 mph - N/A   Clear
11:35 PM 54.1 °F 42.8 °F 66% 30.35 in 10.0 mi NNW 4.6 mph - N/A   Clear
11:55 PM 53.2 °F 43.0 °F 68% 30.35 in 10.0 mi NNW 8.1 mph - N/A   Clear